Regional Weather Roundup
Issued by NWS Midland/Odessa, TX

Home | Current Version | Previous Version | Text Only | Print | Product List | Glossary On
Versions: 1 2 3 4 5 6 7 8 9 10 11 12 13 14 15 16 17 18 19 20 21 22 23 24 25 26 27 28 29 30 31 32 33 34 35 36 37 38 39 40 41 42 43 44 45 46 47 48 49 50
000
ASUS44 KMAF 240410
RWRMAF
MIDLAND AREA WEATHER ROUNDUP
NATIONAL WEATHER SERVICE MIDLAND TX
1100 PM CDT TUE MAY 23 2017

...IN SOUTHWEST TEXAS AND SOUTHEAST NEW MEXICO...

CITY           SKY/WX    TMP DP  RH WIND       PRES   REMARKS
ALPINE         CLEAR     54  45  70 E5        30.17R
ANDREWS        FAIR      57  39  51 SW5       30.06R
ARTESIA        CLEAR     63  32  31 CALM      30.07R
BIG SPRING     CLEAR     54  46  73 E3        30.06R
CARLSBAD       CLEAR     62  42  47 SE7       30.05R
DRYDEN           N/A     61  53  75 CALM      30.04R
FORT STOCKTON  CLEAR     58  47  66 SE6       30.07R
GUAD PASS      CLEAR     55  39  54 NE23      30.12R
HOBBS          CLEAR     57  34  41 CALM      30.08R
MARFA          CLEAR     55  44  66 NE12      30.12R
MIDLAND AIRPK  CLEAR     60  42  50 SE5       30.04S
MIDLAND INTL   CLEAR     61  41  47 CALM      30.04S
ODESSA         CLEAR     61  42  49 SW3       30.05R
PECOS          CLEAR     61  38  42 E6        30.05R
PRESIDIO       FAIR      69  47  44 NE18G26   30.01R
SEMINOLE       CLEAR     56  37  47 CALM      30.07R
SNYDER         CLEAR     57  46  64 S5        30.02S
WINK           CLEAR     60  37  42 E5        30.03S
$$
...OTHER STATIONS IN TEXAS...

CITY           SKY/WX    TMP DP  RH WIND       PRES   REMARKS
ABILENE        CLEAR     52  51  97 MISG      30.00S
AMARILLO       CLEAR     50  35  56 NW7       30.05S
AUSTIN         CLEAR     63  54  72 N13       29.96R
BROWNSVILLE    PTCLDY    80  75  84 NE3       29.81R
CORPUS CHRISTI CLOUDY    69  61  75 N22G31    29.90R
DALLAS FTW     CLEAR     63  52  67 W13       29.90S
DEL RIO        CLEAR     64  54  69 N5        30.00R
EL PASO        CLEAR     72  37  28 E12       30.00R
HOUSTON INT    CLOUDY    67  60  78 NW10      29.90R
LUBBOCK        MOCLDY    55  41  59 N9        30.03R
SAN ANGELO     CLEAR     50  45  83 SW3       30.03S
SAN ANTONIO    PTCLDY    66  52  60 N14G24    29.97R
WACO           CLEAR     58  53  84 NW9       29.95R
WICHITA FALLS  NOT AVBL
$$
...OTHER LOCATIONS IN NEW MEXICO...

CITY           SKY/WX    TMP DP  RH WIND       PRES   REMARKS
ALAMOGORDO     CLEAR     63  36  36 S5        30.01R
ALBUQUERQUE    CLEAR     69  19  15 N5        30.08R
CANNON AFB     CLEAR     53  41  62 NE10      30.11R
CLOVIS         CLOUDY    55  36  47 NE6       30.10R
HOLLOMAN AFB   CLEAR     68  37  32 S12       30.03R
ROSWELL        CLEAR     58  31  35 SW6       30.07R
RUIDOSO        CLEAR     46  32  57 SE6       30.22R
SANTA FE       CLEAR     56  37  49 SE17      30.12R
TRUTH OR CONSE CLEAR     72  35  25 VRB5      30.01R
TUCUMCARI      MOCLDY    56  43  61 CALM      30.07R
$$



USA.gov is the U.S. government's official web portal to all federal, state and local government web resources and services.